Regional Weather Roundup
Issued by NWS

Home | Current Version | Previous Version | Text Only | Print | Product List | Glossary Off
Versions: 1 2 3 4 5 6 7 8 9 10 11 12 13 14 15 16 17 18 19 20 21 22 23 24 25 26 27 28 29 30 31 32 33 34 35 36 37 38 39 40 41 42 43 44 45 46 47 48 49 50

506
ASUS44 KMEG 221800
RWRTN
TENNESSEE HOURLY STATE WEATHER ROUNDUP
NATIONAL WEATHER SERVICE MEMPHIS TN
100 PM CDT SUN APR 22 2018

TNZ002-004-019-021-049-052-054-088>092-221900-
WEST TENNESSEE

CITY           SKY/WX    TMP DP  RH WIND       PRES   REMARKS
MEMPHIS INTL   CLOUDY    63  61  93 S15       29.91F
NWS MEMPHIS      N/A     61 N/A N/A MISG        N/A
JACKSON        LGT RAIN  60  60 100 E9G17     29.97F FOG
DYERSBURG      CLOUDY    57  56  96 E12G20    29.96F
$$

TNZ008-025-027-028-033-062-065-066-221900-
NORTH MIDDLE TENNESSEE

CITY           SKY/WX    TMP DP  RH WIND       PRES   REMARKS
NASHVILLE      RAIN      59  57  93 SE15      30.14S FOG
CLARKSVILLE    LGT RAIN  58  55  90 E14       30.09F FOG
SMYRNA         HVY RAIN  58  56  93 SE10      30.15F FOG
CROSSVILLE     LGT RAIN  54  49  83 SE7       30.20F
$$

TNZ061-075-076-078-094-096-097-221900-
SOUTH MIDDLE TENNESSEE

CITY           SKY/WX    TMP DP  RH WIND       PRES   REMARKS
$$

TNZ017-018-042-046-047-221900-
NORTHEAST TENNESSEE

CITY           SKY/WX    TMP DP  RH WIND       PRES   REMARKS
TRI CITIES     CLOUDY    69  46  43 CALM      30.22F
$$

TNZ012-013-036-069-073-074-221900-
CENTRAL EAST TENNESSEE

CITY           SKY/WX    TMP DP  RH WIND       PRES   REMARKS
KNOXVILLE      LGT RAIN  66  47  50 CALM      30.18F
OAK RIDGE      CLOUDY    66  45  46 CALM      30.20F
$$

TNZ083-085-099-221900-
SOUTHEAST TENNESSEE

CITY           SKY/WX    TMP DP  RH WIND       PRES   REMARKS
CHATTANOOGA    RAIN      57  55  93 N8        30.17F FOG
$$

SKY/WX REPORTED AS FAIR MEANS FEW OR NO CLOUDS BELOW
12 THOUSAND FEET.





USA.gov is the U.S. government's official web portal to all federal, state and local government web resources and services.